Find OneWeb SL0592

NORAD ID: 54658 Int'l Des: 2022-166 Owner: ONEWEBN Country: UK Constellation: oneweb operational
LEOCIRCULARPOLARONEWEB_TYPE

Live Position

Loading 3D Globe...

About OneWeb SL0592

Description loading...

Upcoming Passes

Passes for default location (London). Set your location on the main map for personalized predictions.

Altitude History

Loading altitude history...

Two-Line Element Set

1 54658U 22166S 26121.38110912 .00000090 00000-0 18733-3 0 9996
2 54658 87.9228 253.2780 0001899 100.7236 259.4111 13.21827860165259
Epoch: May 1, 2026 • Age: 9 hours

Current Status

Altitude 1182.8 km
Velocity 7.27 km/s
Sub-Earth Point 40.07°N, 118.77°E
Launch Date Dec 8, 2022
Age 3.3 years
Type internet

Technical Details

Classification Payload
Mass 148.00 kg
Dry Mass 140.00 kg
Total Mass 148.00 kg
Length 1.30 m
Diameter 1.00 m
Span 5.00 m
Shape Trapezoid+2 pan
Manufacturer ONEWUS
Bus Type ARROW
Phase Status In Orbit
Owner/State ONEWEBN/UK

Most Searched